Change the Weather History Date:

Wednesday, January 9, 2013

  Actual Average Record
Temperature  
Mean Temperature 29 °F 30 °F  
Max Temperature 40 °F 39 °F 53 °F (1995)
Min Temperature 17 °F 21 °F -13 °F (1977)
Degree Days  
Heating Degree Days 36 35  
Month to date heating degree days 385 321  
Since 1 July heating degree days 2983 3222  
Cooling Degree Days 0 0  
Month to date cooling degree days 0 0  
Year to date cooling degree days 0 0  
Moisture  
Dew Point 26 °F    
Average Humidity 82    
Maximum Humidity 100    
Minimum Humidity 64    
Precipitation  
Precipitation 0.03 in 0.08 in 0.64 in (1965)
Month to date precipitation 0.12 0.77  
Year to date precipitation 0.12 0.77  
Snow  
Snow 0.00 in - - ()
Snow Depth 4.00 in    
Sea Level Pressure  
Sea Level Pressure 29.89 in    
Wind  
Wind Speed 11 mph (WNW)    
Max Wind Speed 24 mph    
Max Gust Speed 28 mph    
Visibility 7 miles    
Events Rain , Snow    
T = Trace of Precipitation, MM = Missing Value Source: NWS Daily Summary

Daily Weather History Graph

Daily Weather History Graph

Search for Another Location

Airport or City:

Trip Planner

Search our weather history database for the weather conditions in past years. The results will help you decide how hot, cold, wet, or windy it might be!

Date:

Astronomy

Jan. 09, 2013 Rise Set
Actual Time 7:34 AM PST 4:53 PM PST
Civil Twilight 7:03 AM PST 5:25 PM PST
Nautical Twilight 6:28 AM PST 6:00 PM PST
Astronomical Twilight 5:54 AM PST 6:33 PM PST
Moon 5:19 AM PST (1/9) 3:01 PM PST (1/9)
Length of Visible Light 10h 21m
Length of Day
9h 19m
Waning Crescent, 6% of the Moon is Illuminated
Jan 9
Waning Crescent
Jan 11
New
Jan 18
First Quarter
Jan 26
Full
Feb 3
Last Quarter

Hourly Weather History & Observations

Time (PST) Temp. Windchill Dew Point Humidity Pressure Visibility Wind Dir Wind Speed Gust Speed Precip Events Conditions
12:53 AM 30.0 °F 25.2 °F 28.0 °F 92% 30.12 in 10.0 mi South 4.6 mph - N/A   Scattered Clouds
1:53 AM 28.9 °F 23.9 °F 28.0 °F 96% 30.10 in 7.0 mi NNE 4.6 mph - N/A   Overcast
2:53 AM 30.9 °F 25.2 °F 28.9 °F 92% 30.03 in 10.0 mi NW 5.8 mph - N/A   Overcast
3:53 AM 35.1 °F 26.4 °F 28.9 °F 78% 29.97 in 10.0 mi South 12.7 mph - N/A   Clear
4:53 AM 30.9 °F - 27.0 °F 85% 29.98 in 10.0 mi Calm Calm - N/A   Scattered Clouds
5:53 AM 34.0 °F 29.8 °F 28.0 °F 79% 29.98 in 10.0 mi Variable 4.6 mph - N/A   Overcast
6:02 AM 37.4 °F - 28.4 °F 70% 29.94 in 7.0 mi Calm Calm - N/A   Overcast
6:53 AM 39.0 °F 31.4 °F 28.0 °F 65% 29.99 in 7.0 mi WNW 12.7 mph - N/A   Overcast
7:53 AM 37.0 °F 31.0 °F 30.9 °F 79% 29.97 in 10.0 mi WNW 8.1 mph - N/A   Overcast
8:53 AM 37.9 °F 32.1 °F 30.9 °F 76% 29.95 in 10.0 mi SSE 8.1 mph - N/A   Overcast
9:53 AM 37.9 °F 28.5 °F 33.1 °F 83% 29.93 in 10.0 mi South 17.3 mph 21.9 mph N/A   Overcast
10:53 AM 37.9 °F 27.9 °F 30.9 °F 76% 29.90 in 10.0 mi South 19.6 mph - N/A   Overcast
11:53 AM 37.9 °F 28.9 °F 30.9 °F 76% 29.85 in 10.0 mi South 16.1 mph - N/A   Overcast
12:24 PM 37.4 °F 28.5 °F 30.2 °F 75% 29.82 in 10.0 mi West 15.0 mph - 0.00 in Rain Light Rain
12:33 PM 37.4 °F 27.8 °F 32.0 °F 81% 29.81 in 10.0 mi West 17.3 mph - 0.00 in Rain Light Rain
12:53 PM 34.0 °F 21.8 °F 32.0 °F 92% 29.85 in 3.0 mi WNW 23.0 mph 27.6 mph 0.01 in Rain , Snow Light Rain
12:58 PM 33.8 °F 23.2 °F 30.2 °F 87% 29.81 in 1.5 mi WNW 17.3 mph 27.6 mph 0.01 in Snow Light Snow
1:17 PM 33.8 °F 23.2 °F 30.2 °F 87% 29.81 in 3.0 mi WNW 17.3 mph - 0.01 in Snow Light Snow
1:24 PM 33.8 °F 23.2 °F 30.2 °F 87% 29.81 in 9.0 mi WNW 17.3 mph - 0.01 in   Overcast
1:53 PM 34.0 °F 23.4 °F 28.0 °F 79% 29.86 in 10.0 mi WNW 17.3 mph - 0.01 in   Overcast
2:07 PM 33.8 °F 23.5 °F 28.4 °F 81% 29.83 in 7.0 mi NW 16.1 mph - 0.00 in Snow Light Snow
2:53 PM 33.1 °F 25.5 °F 28.0 °F 82% 29.86 in 7.0 mi WNW 9.2 mph - 0.00 in Snow Light Snow
3:53 PM 30.9 °F 22.2 °F 26.1 °F 82% 29.87 in 1.5 mi NW 10.4 mph - 0.00 in Snow Light Snow
3:58 PM 30.2 °F 21.3 °F 26.6 °F 86% 29.84 in 0.8 mi WNW 10.4 mph - 0.00 in Snow Light Snow
4:05 PM 30.2 °F 18.5 °F 26.6 °F 86% 29.83 in 3.0 mi WNW 17.3 mph 23.0 mph 0.00 in Snow Light Snow
4:53 PM 30.0 °F 18.3 °F 23.0 °F 75% 29.87 in 7.0 mi West 17.3 mph - 0.00 in Snow Light Snow
5:53 PM 28.0 °F 15.7 °F 24.1 °F 85% 29.87 in 3.0 mi NNW 17.3 mph 25.3 mph 0.00 in Snow Light Snow
6:15 PM 28.4 °F 19.1 °F 24.8 °F 86% 29.83 in 1.5 mi NNW 10.4 mph - 0.00 in Snow Light Snow
6:53 PM 28.0 °F - 25.0 °F 88% 29.87 in 1.5 mi Calm Calm - 0.00 in Snow Light Snow
6:58 PM 28.4 °F 24.6 °F 24.8 °F 86% 29.84 in 3.0 mi NW 3.5 mph - 0.00 in Snow Light Snow
7:33 PM 26.6 °F 18.2 °F 24.8 °F 93% 29.84 in 1.0 mi NNW 8.1 mph - 0.00 in Snow Light Snow
7:53 PM 27.0 °F 21.6 °F 25.0 °F 92% 29.88 in 1.0 mi WNW 4.6 mph - 0.01 in Snow Light Snow
8:15 PM 26.6 °F 22.6 °F 24.8 °F 93% 29.85 in 2.0 mi WNW 3.5 mph - 0.00 in Snow Light Snow
8:24 PM 26.6 °F 21.2 °F 24.8 °F 93% 29.85 in 5.0 mi NW 4.6 mph - 0.00 in Snow Light Snow
8:50 PM 26.6 °F 16.8 °F 19.4 °F 74% 29.85 in 7.0 mi NW 10.4 mph - 0.00 in   Overcast
8:53 PM 27.0 °F 17.3 °F 19.9 °F 75% 29.88 in 7.0 mi NW 10.4 mph - 0.00 in   Overcast
9:53 PM 26.1 °F 14.5 °F 18.0 °F 71% 29.89 in 7.0 mi NW 13.8 mph - N/A   Overcast
10:07 PM 26.6 °F 15.7 °F 19.4 °F 74% 29.86 in 10.0 mi NW 12.7 mph - N/A   Mostly Cloudy
10:26 PM 24.8 °F 13.4 °F 19.4 °F 80% 29.85 in 10.0 mi NW 12.7 mph - N/A   Mostly Cloudy
10:53 PM 24.1 °F 14.4 °F 17.1 °F 75% 29.91 in 10.0 mi NW 9.2 mph - N/A   Clear
11:53 PM 19.0 °F 7.5 °F 15.1 °F 85% 29.91 in 10.0 mi WNW 10.4 mph - N/A   Clear